TimeCST,TemperatureF,Dew PointF,Humidity,Sea Level PressureIn,VisibilityMPH,Wind Direction,Wind SpeedMPH,Gust SpeedMPH,PrecipitationIn,Events,Conditions,WindDirDegrees,DateUTC
12:17 AM,25.7,14.7,63,29.57,10.0,South,15.0,24.2,N/A,,Overcast,190,2014-01-18 06:17:00
12:38 AM,25.9,15.4,65,29.53,10.0,SSW,19.6,26.5,N/A,,Overcast,200,2014-01-18 06:38:00
12:57 AM,26.6,16.3,65,29.50,10.0,SSW,24.2,34.5,N/A,,Overcast,200,2014-01-18 06:57:00
1:18 AM,27.9,17.1,64,29.49,10.0,SW,21.9,31.1,N/A,,Overcast,220,2014-01-18 07:18:00
1:38 AM,28.2,17.2,63,29.49,10.0,SW,27.6,33.4,N/A,,Overcast,220,2014-01-18 07:38:00
1:58 AM,28.0,18.1,66,29.50,10.0,SW,21.9,31.1,N/A,,Overcast,220,2014-01-18 07:58:00
2:17 AM,28.4,18.5,66,29.48,10.0,SW,20.7,25.3,N/A,,Overcast,230,2014-01-18 08:17:00
2:38 AM,28.2,21.2,75,29.48,3.0,WSW,17.3,-,N/A,Snow,Light Snow,250,2014-01-18 08:38:00
2:57 AM,29.8,25.2,83,29.47,1.5,West,12.7,20.7,N/A,Snow,Light Snow,260,2014-01-18 08:57:00
3:17 AM,30.2,27.9,91,29.46,1.0,West,10.4,17.3,N/A,Snow,Light Snow,280,2014-01-18 09:17:00
3:38 AM,31.5,28.4,88,29.45,10.0,West,12.7,19.6,N/A,,Overcast,270,2014-01-18 09:38:00
3:57 AM,32.0,29.1,89,29.44,4.0,West,11.5,19.6,N/A,Snow,Light Snow,280,2014-01-18 09:57:00
4:18 AM,32.7,30.9,93,29.44,2.0,WNW,13.8,21.9,N/A,Snow,Light Snow,290,2014-01-18 10:18:00
4:38 AM,33.4,31.8,94,29.44,2.5,WNW,13.8,21.9,N/A,Snow,Light Snow,300,2014-01-18 10:38:00
4:58 AM,33.8,32.0,93,29.43,2.0,WNW,18.4,24.2,N/A,Snow,Light Snow,300,2014-01-18 10:58:00
5:17 AM,34.0,32.0,92,29.43,3.0,WNW,15.0,21.9,N/A,Snow,Light Snow,300,2014-01-18 11:17:00
5:37 AM,34.5,32.0,90,29.43,7.0,WNW,13.8,21.9,N/A,Snow,Light Snow,300,2014-01-18 11:37:00
5:58 AM,34.7,32.0,90,29.43,10.0,WNW,15.0,20.7,0.01,,Overcast,300,2014-01-18 11:58:00
6:17 AM,35.2,31.8,87,29.43,10.0,WNW,17.3,23.0,N/A,Rain,Light Rain,300,2014-01-18 12:17:00
6:37 AM,35.2,31.5,86,29.43,10.0,NW,23.0,28.8,N/A,Snow,Light Snow,310,2014-01-18 12:37:00
6:58 AM,34.9,31.3,87,29.43,7.0,NW,23.0,28.8,N/A,Snow,Light Snow,310,2014-01-18 12:58:00
7:18 AM,32.0,29.8,92,29.45,0.8,NNW,21.9,33.4,N/A,Snow,Light Snow,340,2014-01-18 13:18:00
7:37 AM,31.6,29.7,92,29.46,4.0,NNW,17.3,27.6,N/A,Snow,Light Snow,340,2014-01-18 13:37:00
7:58 AM,30.7,28.0,90,29.48,1.8,NNW,25.3,33.4,N/A,Snow,Light Snow,330,2014-01-18 13:58:00
8:18 AM,29.8,27.5,91,29.50,1.8,NNW,25.3,31.1,N/A,Snow,Light Snow,340,2014-01-18 14:18:00
8:37 AM,27.9,25.9,92,29.52,0.5,NNW,24.2,35.7,N/A,Snow,Light Snow,330,2014-01-18 14:37:00
8:57 AM,27.1,25.3,93,29.55,0.8,North,24.2,32.2,N/A,Snow,Light Snow,350,2014-01-18 14:57:00
9:18 AM,21.7,19.6,91,29.60,1.0,North,25.3,33.4,N/A,Snow,Light Snow,10,2014-01-18 15:18:00
9:38 AM,19.2,16.9,91,29.65,1.8,North,25.3,31.1,N/A,Snow,Light Snow,10,2014-01-18 15:38:00
9:57 AM,19.0,16.5,90,29.68,1.8,North,24.2,32.2,N/A,Snow,Light Snow,10,2014-01-18 15:57:00
10:17 AM,17.6,14.5,88,29.72,2.0,North,24.2,33.4,N/A,,Overcast,10,2014-01-18 16:17:00
10:38 AM,17.1,13.8,87,29.75,2.5,North,24.2,29.9,N/A,Snow,Light Snow,360,2014-01-18 16:38:00
10:58 AM,16.9,13.6,87,29.78,3.0,North,24.2,-,N/A,Snow,Light Snow,350,2014-01-18 16:58:00
11:18 AM,16.5,13.1,86,29.81,1.2,North,24.2,31.1,N/A,Snow,Light Snow,350,2014-01-18 17:18:00
11:37 AM,16.5,12.9,86,29.82,2.0,North,24.2,32.2,N/A,Snow,Light Snow,360,2014-01-18 17:37:00
11:58 AM,16.7,12.4,83,29.84,3.0,North,21.9,32.2,N/A,Snow,Light Snow,360,2014-01-18 17:58:00
12:17 PM,17.2,13.3,84,29.86,2.5,North,19.6,26.5,N/A,Snow,Light Snow,350,2014-01-18 18:17:00
12:37 PM,17.1,12.6,82,29.87,4.0,North,20.7,28.8,N/A,Snow,Light Snow,350,2014-01-18 18:37:00
12:58 PM,16.9,12.2,82,29.88,4.0,North,21.9,29.9,N/A,Snow,Light Snow,350,2014-01-18 18:58:00
1:17 PM,17.4,12.2,80,29.88,7.0,NNW,18.4,-,N/A,,Mostly Cloudy,340,2014-01-18 19:17:00
1:37 PM,17.4,12.7,82,29.89,7.0,NNW,17.3,24.2,N/A,,Scattered Clouds,340,2014-01-18 19:37:00
1:57 PM,17.6,12.2,79,29.90,10.0,NNW,15.0,-,N/A,,Scattered Clouds,340,2014-01-18 19:57:00
2:17 PM,18.0,12.4,79,29.91,10.0,NNW,15.0,20.7,N/A,,Clear,340,2014-01-18 20:17:00
2:38 PM,18.1,12.9,80,29.93,10.0,NNW,17.3,24.2,N/A,,Clear,340,2014-01-18 20:38:00
2:57 PM,18.5,13.1,79,29.94,10.0,NNW,16.1,25.3,N/A,,Clear,330,2014-01-18 20:57:00
3:18 PM,19.0,13.6,79,29.96,10.0,NNW,18.4,-,N/A,,Clear,330,2014-01-18 21:18:00
3:37 PM,19.0,13.6,79,29.97,10.0,NNW,17.3,21.9,N/A,,Clear,330,2014-01-18 21:37:00
3:57 PM,19.2,14.0,80,29.97,10.0,NNW,17.3,-,N/A,,Clear,330,2014-01-18 21:57:00
4:17 PM,19.0,14.2,81,29.98,10.0,NW,12.7,-,N/A,,Clear,320,2014-01-18 22:17:00
4:38 PM,19.0,14.0,81,30.00,10.0,NW,11.5,-,N/A,,Clear,320,2014-01-18 22:38:00
4:58 PM,18.7,14.0,82,30.00,10.0,NW,6.9,-,N/A,,Clear,310,2014-01-18 22:58:00
5:17 PM,18.1,14.0,84,29.99,10.0,Calm,Calm,-,N/A,,Clear,0,2014-01-18 23:17:00
5:38 PM,18.0,13.6,83,29.98,10.0,Calm,Calm,-,N/A,,Clear,0,2014-01-18 23:38:00
5:58 PM,17.6,13.6,84,29.98,10.0,West,3.5,-,N/A,,Clear,270,2014-01-18 23:58:00
6:17 PM,17.1,13.1,84,29.98,10.0,Calm,Calm,-,N/A,,Clear,0,2014-01-19 00:17:00
6:37 PM,16.9,12.7,84,29.97,10.0,Calm,Calm,-,N/A,,Clear,0,2014-01-19 00:37:00
6:58 PM,16.7,12.7,84,29.96,10.0,Calm,Calm,-,N/A,,Clear,0,2014-01-19 00:58:00
7:17 PM,17.4,13.1,83,29.96,10.0,Calm,Calm,-,N/A,,Clear,0,2014-01-19 01:17:00
7:37 PM,17.6,13.6,84,29.94,10.0,West,5.8,-,N/A,,Scattered Clouds,280,2014-01-19 01:37:00
7:58 PM,18.0,14.4,86,29.94,10.0,West,8.1,-,N/A,,Mostly Cloudy,270,2014-01-19 01:58:00
8:18 PM,19.2,15.8,87,29.91,10.0,West,9.2,-,N/A,,Scattered Clouds,260,2014-01-19 02:18:00
8:37 PM,20.5,17.4,88,29.90,10.0,West,6.9,-,N/A,,Clear,260,2014-01-19 02:37:00
8:58 PM,22.8,19.4,87,29.89,10.0,West,3.5,-,N/A,,Clear,270,2014-01-19 02:58:00
9:18 PM,23.5,19.9,86,29.88,10.0,WSW,8.1,-,N/A,,Scattered Clouds,250,2014-01-19 03:18:00
9:38 PM,23.4,19.8,86,29.86,10.0,WSW,9.2,-,N/A,,Scattered Clouds,240,2014-01-19 03:38:00
9:57 PM,22.8,19.4,87,29.84,10.0,SW,10.4,-,N/A,,Scattered Clouds,230,2014-01-19 03:57:00
10:17 PM,23.0,19.4,86,29.83,10.0,SW,13.8,-,N/A,,Clear,230,2014-01-19 04:17:00
10:38 PM,23.0,19.4,86,29.80,10.0,SW,19.6,-,N/A,,Clear,220,2014-01-19 04:38:00
10:57 PM,23.0,19.9,88,29.77,10.0,SW,21.9,27.6,N/A,,Clear,230,2014-01-19 04:57:00
11:17 PM,24.8,21.2,86,29.77,7.0,SW,20.7,28.8,N/A,,Clear,230,2014-01-19 05:17:00
11:37 PM,25.5,21.7,86,29.76,10.0,SW,21.9,28.8,N/A,,Clear,230,2014-01-19 05:37:00
11:58 PM,25.7,21.6,84,29.76,10.0,SW,19.6,28.8,N/A,,Clear,230,2014-01-19 05:58:00